When you browse on this site, cookies collect data to enhance your experience and personalize the content and advertising you see.
Visit our Privacy Policy to learn more. By continuing to use the site, you agree to this use of cookies and data.
  • En España
  • Lista de países
  • Para 7 días
  • Temperatura del agua
  • El tiempo en el mapa
  • Informadores
  • user-avatar
    Iniciar sesión

    Tiempo cada hora Popovka 1-ya

    Hoy, 18 Agosto, Domingo

    Tiempo Temperatura Precipitaciones Viento Presión Humedad
    00:00 +17°C° 0.1 mm 3 mps 733 mmHg 97%
    01:00 +17°C° 0.1 mm 3 mps 733 mmHg 98%
    02:00 +16°C° 0.1 mm 2 mps 733 mmHg 98%
    03:00 +16°C° 0 mm 2 mps 733 mmHg 98%
    04:00 +16°C° 0 mm 2 mps 733 mmHg 97%
    05:00 +16°C° 0 mm 1 mps 733 mmHg 97%
    06:00 +17°C° 0 mm 2 mps 733 mmHg 94%
    07:00 +18°C° 0 mm 2 mps 733 mmHg 91%
    08:00 +19°C° 0 mm 2 mps 734 mmHg 88%
    09:00 +20°C° 0.1 mm 2 mps 734 mmHg 83%
    10:00 +21°C° 0.1 mm 2 mps 734 mmHg 79%
    11:00 +21°C° 0.1 mm 2 mps 734 mmHg 75%
    12:00 +23°C° 0.2 mm 2 mps 734 mmHg 73%
    13:00 +23°C° 0.2 mm 2 mps 735 mmHg 71%
    14:00 +24°C° 0.2 mm 3 mps 735 mmHg 69%
    15:00 +22°C° 0.9 mm 3 mps 735 mmHg 74%
    16:00 +21°C° 0.9 mm 3 mps 735 mmHg 79%
    17:00 +20°C° 0.9 mm 4 mps 735 mmHg 83%
    18:00 +19°C° 0.2 mm 3 mps 736 mmHg 87%
    19:00 +18°C° 0.2 mm 3 mps 736 mmHg 91%
    20:00 +16°C° 0.2 mm 3 mps 736 mmHg 95%
    21:00 +14°C° 0 mm 3 mps 737 mmHg 95%
    22:00 +15°C° 0 mm 2 mps 737 mmHg 96%
    23:00 +14°C° 0 mm 2 mps 737 mmHg 96%

    Mañana, 19 Agosto, Lunes

    Tiempo Temperatura Precipitaciones Viento Presión Humedad
    00:00 +14°C° 0 mm 2 mps 737 mmHg 97%
    01:00 +14°C° 0 mm 2 mps 738 mmHg 97%
    02:00 +13°C° 0 mm 2 mps 738 mmHg 98%
    03:00 +14°C° 0 mm 2 mps 738 mmHg 97%
    04:00 +13°C° 0 mm 3 mps 739 mmHg 96%
    05:00 +13°C° 0 mm 3 mps 739 mmHg 96%
    06:00 +14°C° 0 mm 3 mps 739 mmHg 94%
    07:00 +16°C° 0 mm 3 mps 740 mmHg 91%
    08:00 +16°C° 0 mm 3 mps 740 mmHg 89%
    09:00 +18°C° 0 mm 3 mps 740 mmHg 83%
    10:00 +20°C° 0 mm 3 mps 741 mmHg 77%
    11:00 +21°C° 0 mm 3 mps 741 mmHg 70%
    12:00 +22°C° 0 mm 3 mps 741 mmHg 67%
    13:00 +24°C° 0 mm 3 mps 741 mmHg 64%
    14:00 +25°C° 0 mm 3 mps 742 mmHg 61%
    15:00 +24°C° 0 mm 2 mps 742 mmHg 65%
    16:00 +24°C° 0 mm 2 mps 742 mmHg 68%
    17:00 +24°C° 0 mm 1 mps 742 mmHg 71%
    18:00 +22°C° 0 mm 1 mps 742 mmHg 75%
    19:00 +21°C° 0 mm 1 mps 742 mmHg 79%
    20:00 +19°C° 0 mm 1 mps 742 mmHg 83%
    21:00 +19°C° 0 mm 1 mps 742 mmHg 85%
    22:00 +18°C° 0 mm 1 mps 743 mmHg 86%
    23:00 +18°C° 0 mm 1 mps 743 mmHg 87%

    Pasado mañana, 20 Agosto, Martes

    Tiempo Temperatura Precipitaciones Viento Presión Humedad
    00:00 +16°C° 0 mm 1 mps 743 mmHg 88%
    01:00 +16°C° 0 mm 1 mps 743 mmHg 88%
    02:00 +16°C° 0 mm 1 mps 743 mmHg 89%
    03:00 +16°C° 0 mm 1 mps 743 mmHg 89%
    04:00 +16°C° 0 mm 1 mps 743 mmHg 89%
    05:00 +16°C° 0 mm 1 mps 744 mmHg 89%
    06:00 +18°C° 0 mm 1 mps 744 mmHg 84%
    07:00 +19°C° 0 mm 2 mps 744 mmHg 79%
    08:00 +21°C° 0 mm 2 mps 744 mmHg 74%
    09:00 +23°C° 0 mm 2 mps 744 mmHg 69%
    10:00 +24°C° 0 mm 2 mps 744 mmHg 64%
    11:00 +25°C° 0 mm 2 mps 744 mmHg 60%
    12:00 +26°C° 0 mm 2 mps 744 mmHg 59%
    13:00 +26°C° 0 mm 2 mps 744 mmHg 58%
    14:00 +27°C° 0 mm 2 mps 744 mmHg 57%
    15:00 +27°C° 0 mm 2 mps 744 mmHg 61%
    16:00 +26°C° 0 mm 1 mps 744 mmHg 66%
    17:00 +26°C° 0 mm 1 mps 744 mmHg 70%
    18:00 +25°C° 0 mm 1 mps 744 mmHg 73%
    19:00 +23°C° 0 mm 1 mps 744 mmHg 76%
    20:00 +22°C° 0 mm 1 mps 744 mmHg 79%
    21:00 +21°C° 0 mm 1 mps 744 mmHg 80%
    22:00 +21°C° 0 mm 1 mps 744 mmHg 81%
    23:00 +21°C° 0 mm 1 mps 745 mmHg 82%

    21 Agosto, Miércoles

    Tiempo Temperatura Precipitaciones Viento Presión Humedad
    00:00 +20°C° 0 mm 1 mps 744 mmHg 84%
    01:00 +20°C° 0 mm 1 mps 744 mmHg 85%
    02:00 +20°C° 0 mm 1 mps 744 mmHg 87%
    03:00 +20°C° 0 mm 1 mps 744 mmHg 88%
    04:00 +19°C° 0 mm 1 mps 744 mmHg 88%
    05:00 +19°C° 0 mm 1 mps 744 mmHg 89%
    06:00 +21°C° 0 mm 1 mps 745 mmHg 84%
    07:00 +23°C° 0 mm 1 mps 745 mmHg 79%
    08:00 +24°C° 0 mm 1 mps 745 mmHg 74%
    09:00 +24°C° 0 mm 0 mps 745 mmHg 70%
    10:00 +25°C° 0 mm 0 mps 745 mmHg 66%
    11:00 +26°C° 0 mm 0 mps 745 mmHg 61%
    12:00 +26°C° 0 mm 0 mps 745 mmHg 59%
    13:00 +29°C° 0 mm 1 mps 744 mmHg 57%
    14:00 +29°C° 0 mm 1 mps 744 mmHg 55%
    15:00 +29°C° 0 mm 1 mps 744 mmHg 59%
    16:00 +28°C° 0 mm 1 mps 744 mmHg 62%
    17:00 +28°C° 0 mm 2 mps 743 mmHg 65%
    18:00 +27°C° 0 mm 2 mps 743 mmHg 69%
    19:00 +25°C° 0 mm 2 mps 743 mmHg 73%
    20:00 +24°C° 0 mm 2 mps 743 mmHg 77%
    21:00 +23°C° 0 mm 2 mps 743 mmHg 78%
    22:00 +23°C° 0 mm 2 mps 743 mmHg 80%
    23:00 +21°C° 0 mm 2 mps 743 mmHg 81%

    22 Agosto, Jueves

    Tiempo Temperatura Precipitaciones Viento Presión Humedad
    00:00 +21°C° 0 mm 2 mps 743 mmHg 82%
    01:00 +20°C° 0 mm 2 mps 742 mmHg 83%
    02:00 +20°C° 0 mm 2 mps 742 mmHg 84%
    03:00 +19°C° 0 mm 2 mps 742 mmHg 85%
    04:00 +19°C° 0 mm 2 mps 742 mmHg 85%
    05:00 +19°C° 0 mm 2 mps 741 mmHg 86%
    06:00 +20°C° 0 mm 2 mps 741 mmHg 82%
    07:00 +21°C° 0 mm 2 mps 741 mmHg 77%
    08:00 +24°C° 0 mm 3 mps 741 mmHg 73%
    09:00 +25°C° 0 mm 3 mps 741 mmHg 68%
    10:00 +26°C° 0 mm 2 mps 741 mmHg 63%
    11:00 +27°C° 0 mm 2 mps 741 mmHg 59%
    12:00 +27°C° 0 mm 2 mps 741 mmHg 58%
    13:00 +28°C° 0 mm 2 mps 741 mmHg 57%
    14:00 +28°C° 0 mm 2 mps 741 mmHg 56%
    15:00 +27°C° 0 mm 3 mps 741 mmHg 63%
    16:00 +25°C° 0 mm 4 mps 741 mmHg 71%
    17:00 +23°C° 0 mm 5 mps 741 mmHg 79%
    18:00 +22°C° 0 mm 4 mps 742 mmHg 81%
    19:00 +20°C° 0 mm 4 mps 742 mmHg 82%
    20:00 +19°C° 0 mm 4 mps 742 mmHg 84%
    21:00 +18°C° 0 mm 4 mps 742 mmHg 84%
    22:00 +18°C° 0 mm 4 mps 743 mmHg 83%
    23:00 +18°C° 0 mm 3 mps 743 mmHg 82%

    23 Agosto, Viernes

    Tiempo Temperatura Precipitaciones Viento Presión Humedad
    00:00 +18°C° 0 mm 4 mps 743 mmHg 83%
    01:00 +17°C° 0 mm 4 mps 743 mmHg 83%
    02:00 +17°C° 0 mm 4 mps 743 mmHg 83%
    03:00 +17°C° 0.2 mm 4 mps 743 mmHg 84%
    04:00 +17°C° 0.2 mm 4 mps 743 mmHg 84%
    05:00 +15°C° 0.2 mm 4 mps 743 mmHg 85%
    06:00 +15°C° 0 mm 4 mps 743 mmHg 83%
    07:00 +17°C° 0 mm 4 mps 744 mmHg 82%
    08:00 +17°C° 0 mm 4 mps 744 mmHg 80%
    09:00 +18°C° 0 mm 4 mps 744 mmHg 76%
    10:00 +19°C° 0 mm 4 mps 744 mmHg 71%
    11:00 +20°C° 0 mm 4 mps 744 mmHg 67%
    12:00 +21°C° 0 mm 3 mps 744 mmHg 65%
    13:00 +21°C° 0 mm 3 mps 744 mmHg 63%
    14:00 +21°C° 0 mm 3 mps 743 mmHg 61%
    15:00 +21°C° 0 mm 3 mps 743 mmHg 63%
    16:00 +21°C° 0 mm 3 mps 743 mmHg 66%
    17:00 +20°C° 0 mm 2 mps 743 mmHg 69%
    18:00 +19°C° 0 mm 2 mps 743 mmHg 71%
    19:00 +18°C° 0 mm 2 mps 743 mmHg 74%
    20:00 +16°C° 0 mm 2 mps 743 mmHg 76%
    21:00 +16°C° 0 mm 2 mps 743 mmHg 76%
    22:00 +15°C° 0 mm 2 mps 743 mmHg 76%
    23:00 +15°C° 0 mm 2 mps 743 mmHg 77%
    Mostrar más